| time (UTC) | temp C | wind direction | speed KPH | gust KPH | rain 1hr cm | rain 24hr cm | rain mn cm | humidity % | barometer mb |
| 20260510180143 | 26 | 245 | 1.6 | 1.6 | 0.00 | 0.03 | 0.03 | 65 | 1015.2 |
| 20260510175639 | 26 | 233 | 3.2 | 4.8 | 0.00 | 0.03 | 0.03 | 65 | 1015.6 |
| 20260510175134 | 26 | 146 | 0.0 | 3.2 | 0.00 | 0.03 | 0.03 | 93 | 1015.6 |
| 20260510174632 | 26 | 215 | 0.0 | 1.6 | 0.00 | 0.03 | 0.03 | 99 | 1015.6 |
| 20260510174130 | 25 | 278 | 0.0 | 4.8 | 0.00 | 0.03 | 0.03 | 99 | 1015.6 |
| 20260510173625 | 25 | 158 | 0.0 | 1.6 | 0.00 | 0.03 | 0.03 | 99 | 1015.6 |
| 20260510173122 | 25 | 181 | 0.0 | 1.6 | 0.00 | 0.03 | 0.03 | 99 | 1015.6 |
| 20260510172617 | 26 | 58 | 1.6 | 3.2 | 0.00 | 0.03 | 0.03 | 99 | 1015.6 |
| 20260510172114 | 26 | 184 | 1.6 | 3.2 | 0.00 | 0.03 | 0.03 | 99 | 1015.6 |
| 20260510171610 | 25 | 218 | 1.6 | 3.2 | 0.00 | 0.03 | 0.03 | 99 | 1015.9 |
| 20260510171108 | 26 | 251 | 3.2 | 4.8 | 0.00 | 0.03 | 0.03 | 99 | 1015.6 |
| 20260510170604 | 26 | 232 | 1.6 | 1.6 | 0.00 | 0.03 | 0.03 | 99 | 1015.9 |
| 20260510170101 | 26 | 123 | 0.0 | 1.6 | 0.00 | 0.03 | 0.03 | 99 | 1015.9 |
| 20260510165556 | 26 | 314 | 0.0 | 3.2 | 0.00 | 0.03 | 0.03 | 99 | 1015.9 |
| 20260510165053 | 25 | 218 | 0.0 | 3.2 | 0.00 | 0.03 | 0.03 | 99 | 1016.3 |
| 20260510164550 | 26 | 233 | 1.6 | 3.2 | 0.00 | 0.03 | 0.03 | 99 | 1015.9 |
| 20260510164047 | 26 | 278 | 0.0 | 0.0 | 0.00 | 0.03 | 0.03 | 99 | 1015.9 |
| 20260510163542 | 26 | 240 | 0.0 | 1.6 | 0.00 | 0.03 | 0.03 | 99 | 1015.9 |
| 20260510163039 | 25 | 227 | 0.0 | 3.2 | 0.00 | 0.03 | 0.03 | 99 | 1015.6 |
| 20260510162533 | 26 | 38 | 1.6 | 1.6 | 0.00 | 0.03 | 0.03 | 99 | 1015.9 |
| 20260510162031 | 25 | 52 | 0.0 | 3.2 | 0.00 | 0.03 | 0.03 | 99 | 1016.3 |
| 20260510161526 | 25 | 164 | 0.0 | 1.6 | 0.00 | 0.03 | 0.03 | 99 | 1015.9 |
| 20260510161023 | 25 | 120 | 0.0 | 1.6 | 0.00 | 0.03 | 0.03 | 99 | 1016.3 |
| 20260510160520 | 25 | 238 | 1.6 | 1.6 | 0.00 | 0.03 | 0.03 | 99 | 1016.3 |
| 20260510160020 | 25 | 92 | 1.6 | 1.6 | 0.00 | 0.03 | 0.03 | 99 | 1015.9 |
| 20260510155516 | 25 | 182 | 0.0 | 3.2 | 0.00 | 0.03 | 0.03 | 99 | 1015.9 |
| 20260510155013 | 25 | 176 | 3.2 | 3.2 | 0.00 | 0.03 | 0.03 | 99 | 1015.6 |
| 20260510154509 | 24 | 172 | 0.0 | 3.2 | 0.00 | 0.03 | 0.03 | 99 | 1015.6 |
| 20260510154008 | 24 | 27 | 0.0 | 1.6 | 0.00 | 0.03 | 0.03 | 99 | 1015.6 |
| 20260510153504 | 24 | 128 | 0.0 | 3.2 | 0.00 | 0.03 | 0.03 | 99 | 1015.6 |
| 20260510153002 | 24 | 354 | 1.6 | 3.2 | 0.00 | 0.03 | 0.03 | 99 | 1015.9 |
| 20260510152458 | 24 | 126 | 0.0 | 1.6 | 0.00 | 0.03 | 0.03 | 99 | 1015.9 |
| 20260510151954 | 24 | 128 | 0.0 | 3.2 | 0.00 | 0.03 | 0.03 | 99 | 1015.6 |
| 20260510151452 | 23 | 128 | 0.0 | 1.6 | 0.00 | 0.03 | 0.03 | 99 | 1015.9 |
| 20260510150948 | 23 | 22 | 0.0 | 1.6 | 0.00 | 0.03 | 0.03 | 99 | 1015.9 |
| 20260510150444 | 23 | 136 | 0.0 | 1.6 | 0.00 | 0.03 | 0.03 | 99 | 1016.3 |
| 20260510145940 | 23 | 77 | 1.6 | 3.2 | 0.00 | 0.03 | 0.03 | 99 | 1015.9 |
| 20260510145436 | 23 | 185 | 0.0 | 0.0 | 0.00 | 0.03 | 0.03 | 99 | 1015.9 |
| 20260510144933 | 23 | 121 | 0.0 | 3.2 | 0.00 | 0.03 | 0.03 | 99 | 1016.3 |
| 20260510144430 | 23 | 124 | 0.0 | 1.6 | 0.00 | 0.03 | 0.03 | 99 | 1015.9 |
| 20260510143925 | 23 | 219 | 0.0 | 1.6 | 0.00 | 0.03 | 0.03 | 99 | 1015.9 |
| 20260510143421 | 23 | 176 | 1.6 | 3.2 | 0.00 | 0.03 | 0.03 | 99 | 1015.9 |
| 20260510142918 | 23 | 122 | 0.0 | 1.6 | 0.00 | 0.03 | 0.03 | 99 | 1015.9 |
| 20260510142415 | 23 | 243 | 0.0 | 3.2 | 0.00 | 0.03 | 0.03 | 99 | 1015.9 |
| 20260510141912 | 23 | 50 | 0.0 | 1.6 | 0.00 | 0.03 | 0.03 | 99 | 1015.9 |
| 20260510141409 | 24 | 260 | 0.0 | 4.8 | 0.00 | 0.03 | 0.03 | 99 | 1015.9 |
| 20260510140906 | 24 | 263 | 0.0 | 3.2 | 0.00 | 0.03 | 0.03 | 99 | 1015.9 |
| 20260510140402 | 24 | 187 | 0.0 | 1.6 | 0.00 | 0.03 | 0.03 | 99 | 1015.9 |
| 20260510135901 | 24 | 177 | 0.0 | 0.0 | 0.00 | 0.03 | 0.03 | 99 | 1015.6 |
| 20260510135357 | 24 | 77 | 0.0 | 1.6 | 0.00 | 0.03 | 0.03 | 99 | 1015.9 |
| 20260510134855 | 24 | 132 | 0.0 | 0.0 | 0.00 | 0.03 | 0.03 | 99 | |
| 20260510134351 | 24 | 95 | 0.0 | 0.0 | 0.00 | 0.03 | 0.03 | 99 | |
| 20260510133847 | 24 | 29 | 0.0 | 1.6 | 0.00 | 0.03 | 0.03 | 99 | |
| 20260510133344 | 24 | 179 | 0.0 | 0.0 | 0.00 | 0.03 | 0.03 | 99 | |
| 20260510132839 | 24 | 229 | 0.0 | 0.0 | 0.00 | 0.03 | 0.03 | 99 | 1015.6 |
| 20260510132338 | 24 | 130 | 0.0 | 1.6 | 0.00 | 0.03 | 0.03 | 99 | 1015.6 |
| 20260510131834 | 24 | 143 | 0.0 | 0.0 | 0.00 | 0.03 | 0.03 | 99 | 1015.6 |
| 20260510131332 | 24 | 77 | 1.6 | 1.6 | 0.00 | 0.03 | 0.03 | 99 | 1015.2 |
| 20260510130828 | 24 | 0 | 0.0 | 0.0 | 0.00 | 0.03 | 0.03 | 99 | 1015.2 |
| 20260510130326 | 23 | 165 | 0.0 | 0.0 | 0.00 | 0.03 | 0.03 | 99 | |
| 20260510125821 | 23 | 91 | 0.0 | 1.6 | 0.00 | 0.03 | 0.03 | 99 | |
| 20260510125318 | 23 | 75 | 0.0 | 0.0 | 0.00 | 0.03 | 0.03 | 99 | |
| 20260510124815 | 23 | 88 | 0.0 | 0.0 | 0.00 | 0.03 | 0.03 | 99 | |
| 20260510124312 | 23 | 121 | 0.0 | 0.0 | 0.00 | 0.03 | 0.03 | 99 | |
| 20260510123807 | 23 | 122 | 0.0 | 0.0 | 0.00 | 0.03 | 0.03 | 99 | |
| 20260510123303 | 23 | 121 | 0.0 | 0.0 | 0.00 | 0.03 | 0.03 | 99 | |
| 20260510122800 | 23 | 120 | 0.0 | 0.0 | 0.00 | 0.03 | 0.03 | 99 | |
| 20260510122256 | 23 | 221 | 0.0 | 0.0 | 0.00 | 0.03 | 0.03 | 99 | |
| 20260510121753 | 23 | 220 | 0.0 | 0.0 | 0.00 | 0.03 | 0.03 | 99 | |
| 20260510121250 | 22 | 226 | 0.0 | 0.0 | 0.00 | 0.03 | 0.03 | 99 | |
| 20260510120747 | 22 | 226 | 0.0 | 0.0 | 0.00 | 0.03 | 0.03 | 99 | 1014.6 |
| 20260510120244 | 22 | 235 | 0.0 | 0.0 | 0.00 | 0.03 | 0.03 | 99 | 1014.6 |
| 20260510115739 | 22 | 235 | 0.0 | 0.0 | 0.00 | 0.03 | 0.03 | 99 | |
| 20260510115237 | 22 | 240 | 0.0 | 0.0 | 0.00 | 0.03 | 0.03 | 99 | |
| 20260510114727 | 22 | 149 | 0.0 | 0.0 | 0.00 | 0.03 | 0.03 | 99 | |
| 20260510114224 | 22 | 136 | 0.0 | 0.0 | 0.00 | 0.03 | 0.03 | 99 | |
| 20260510113719 | 22 | 185 | 0.0 | 0.0 | 0.00 | 0.03 | 0.03 | 99 | |
| 20260510113216 | 22 | 164 | 0.0 | 0.0 | 0.00 | 0.03 | 0.03 | 99 | 1013.9 |
| 20260510112712 | 22 | 189 | 0.0 | 0.0 | 0.00 | 0.03 | 0.03 | 99 | 1013.9 |
| 20260510112210 | 22 | 217 | 0.0 | 0.0 | 0.00 | 0.03 | 0.03 | 99 | |
| 20260510111705 | 22 | 228 | 0.0 | 0.0 | 0.00 | 0.03 | 0.03 | 99 | 1013.5 |
| 20260510111203 | 22 | 229 | 0.0 | 0.0 | 0.00 | 0.03 | 0.03 | 99 | 1013.5 |
| 20260510110656 | 22 | 218 | 0.0 | 0.0 | 0.00 | 0.03 | 0.03 | 99 | |
| 20260510110155 | 22 | 222 | 0.0 | 0.0 | 0.00 | 0.03 | 0.03 | 99 | |
| 20260510105650 | 22 | 229 | 0.0 | 0.0 | 0.00 | 0.03 | 0.03 | 99 | |
| 20260510105150 | 22 | 240 | 0.0 | 0.0 | 0.00 | 0.03 | 0.03 | 99 | 1013.2 |
| 20260510104647 | 22 | 189 | 0.0 | 1.6 | 0.00 | 0.03 | 0.03 | 99 | 1013.2 |
| 20260510104144 | 22 | 187 | 0.0 | 0.0 | 0.00 | 0.03 | 0.03 | 99 | 1012.9 |
| 20260510103640 | 22 | 173 | 0.0 | 0.0 | 0.00 | 0.03 | 0.03 | 99 | 1012.9 |
| 20260510103137 | 22 | 182 | 0.0 | 0.0 | 0.00 | 0.03 | 0.03 | 99 | 1012.9 |
| 20260510102632 | 22 | 182 | 0.0 | 0.0 | 0.00 | 0.03 | 0.03 | 99 | 1012.9 |
| 20260510102129 | 22 | 182 | 0.0 | 0.0 | 0.00 | 0.03 | 0.03 | 99 | 1012.9 |
| 20260510101626 | 22 | 182 | 0.0 | 0.0 | 0.00 | 0.03 | 0.03 | 99 | 1012.5 |
| 20260510101124 | 22 | 182 | 0.0 | 0.0 | 0.00 | 0.03 | 0.03 | 99 | 1012.5 |
| 20260510100620 | 22 | 177 | 0.0 | 0.0 | 0.00 | 0.03 | 0.03 | 99 | 1012.5 |
| 20260510100118 | 22 | 182 | 0.0 | 0.0 | 0.00 | 0.03 | 0.03 | 99 | 1012.5 |
| 20260510095613 | 22 | 137 | 0.0 | 0.0 | 0.00 | 0.03 | 0.03 | 99 | 1012.5 |
| 20260510095113 | 22 | 131 | 0.0 | 0.0 | 0.00 | 0.03 | 0.03 | 99 | 1012.2 |
| 20260510094612 | 22 | 121 | 0.0 | 0.0 | 0.00 | 0.03 | 0.03 | 99 | 1012.9 |
| 20260510094108 | 22 | 327 | 0.0 | 0.0 | 0.00 | 0.03 | 0.03 | 99 | 1012.5 |
| 20260510093605 | 22 | 76 | 0.0 | 0.0 | 0.00 | 0.03 | 0.03 | 99 | 1012.5 |
| 20260510093101 | 22 | 312 | 0.0 | 0.0 | 0.00 | 0.03 | 0.03 | 99 | 1012.5 |
| 20260510092558 | 22 | 185 | 0.0 | 0.0 | 0.00 | 0.03 | 0.03 | 99 | 1012.5 |
| 20260510092058 | 21 | 184 | 0.0 | 0.0 | 0.00 | 0.03 | 0.03 | 99 | 1012.5 |
| 20260510091555 | 21 | 184 | 0.0 | 0.0 | 0.18 | 0.03 | 0.03 | 99 | 1012.2 |
| 20260510091051 | 21 | 171 | 0.0 | 0.0 | 0.18 | 0.03 | 0.03 | 99 | 1012.2 |
| 20260510090548 | 21 | 146 | 0.0 | 0.0 | 0.00 | 0.00 | 0.00 | 99 | 1011.9 |
| 20260510090044 | 22 | 155 | 0.0 | 0.0 | 0.00 | 0.00 | 0.00 | 99 | 1012.2 |
| 20260510085538 | 21 | 171 | 0.0 | 0.0 | 0.00 | 0.00 | 0.00 | 99 | 1012.2 |
| 20260510085035 | 21 | 182 | 0.0 | 0.0 | 0.00 | 0.00 | 0.00 | 99 | 1012.2 |
| 20260510084532 | 21 | 167 | 0.0 | 0.0 | 0.00 | 0.00 | 0.00 | 99 | 1012.2 |
| 20260510084028 | 21 | 159 | 0.0 | 0.0 | 0.00 | 0.00 | 0.00 | 99 | 1012.2 |
| 20260510083524 | 21 | 151 | 0.0 | 0.0 | 0.00 | 0.00 | 0.00 | 99 | 1012.2 |
| 20260510083021 | 21 | 183 | 0.0 | 0.0 | 0.00 | 0.00 | 0.00 | 99 | |
| 20260510075452 | 21 | 183 | 0.0 | 0.0 | 0.00 | 0.00 | 0.00 | 99 | 1011.9 |
| 20260510074948 | 21 | 183 | 0.0 | 0.0 | 0.00 | 0.00 | 0.00 | 99 | 1011.9 |
| 20260510074446 | 21 | 183 | 0.0 | 0.0 | 0.00 | 0.00 | 0.00 | 99 | 1011.9 |
| 20260510073942 | 21 | 183 | 0.0 | 0.0 | 0.00 | 0.00 | 0.00 | 99 | 1011.9 |
| 20260510073437 | 21 | 183 | 0.0 | 0.0 | 0.00 | 0.00 | 0.00 | 99 | 1011.9 |
| 20260510072934 | 21 | 183 | 0.0 | 0.0 | 0.00 | 0.00 | 0.00 | 99 | 1011.9 |
| 20260510072431 | 21 | 165 | 0.0 | 0.0 | 0.00 | 0.00 | 0.00 | 99 | 1011.9 |
| 20260510071926 | 21 | 229 | 0.0 | 0.0 | 0.00 | 0.00 | 0.00 | 99 | 1011.9 |
| 20260510071423 | 21 | 229 | 0.0 | 0.0 | 0.00 | 0.00 | 0.00 | 99 | 1011.9 |
| 20260510070921 | 21 | 229 | 0.0 | 0.0 | 0.00 | 0.00 | 0.00 | 99 | 1011.9 |
| 20260510070419 | 21 | 229 | 0.0 | 0.0 | 0.00 | 0.00 | 0.00 | 99 | 1011.9 |
| 20260510065914 | 21 | 230 | 0.0 | 0.0 | 0.00 | 0.00 | 0.00 | 99 | 1011.9 |
| 20260510065410 | 21 | 230 | 0.0 | 0.0 | 0.00 | 0.00 | 0.00 | 99 | 1011.9 |
| 20260510064907 | 21 | 231 | 0.0 | 0.0 | 0.00 | 0.00 | 0.00 | 99 | 1011.9 |
| 20260510064405 | 21 | 230 | 0.0 | 0.0 | 0.00 | 0.00 | 0.00 | 99 | 1011.9 |
| 20260510063901 | 21 | 245 | 0.0 | 0.0 | 0.00 | 0.00 | 0.00 | 99 | 1011.9 |
| 20260510063357 | 21 | 176 | 0.0 | 0.0 | 0.00 | 0.00 | 0.00 | 99 | 1011.9 |
| 20260510062854 | 21 | 176 | 0.0 | 0.0 | 0.00 | 0.00 | 0.00 | 99 | 1011.9 |
| 20260510062349 | 21 | 176 | 0.0 | 0.0 | 0.00 | 0.00 | 0.00 | 99 | 1011.9 |
| 20260510061845 | 21 | 176 | 0.0 | 0.0 | 0.00 | 0.00 | 0.00 | 99 | 1011.9 |
| 20260510061342 | 21 | 176 | 0.0 | 0.0 | 0.00 | 0.00 | 0.00 | 99 | 1011.9 |
| 20260510060838 | 21 | 176 | 0.0 | 0.0 | 0.00 | 0.00 | 0.00 | 99 | 1011.9 |
| 20260510060335 | 21 | 186 | 0.0 | 0.0 | 0.00 | 0.00 | 0.00 | 99 | 1011.9 |
| 20260510055832 | 21 | 186 | 0.0 | 0.0 | 0.00 | 0.00 | 0.00 | 99 | 1011.9 |
| 20260510055330 | 21 | 186 | 0.0 | 0.0 | 0.00 | 0.00 | 0.00 | 99 | 1011.9 |
| 20260510054825 | 21 | 184 | 0.0 | 0.0 | 0.00 | 0.00 | 0.00 | 99 | 1011.5 |
| 20260510054320 | 21 | 184 | 0.0 | 0.0 | 0.00 | 0.00 | 0.00 | 99 | 1011.5 |
| 20260510053816 | 21 | 182 | 0.0 | 0.0 | 0.00 | 0.00 | 0.00 | 99 | 1011.5 |
| 20260510053311 | 21 | 182 | 0.0 | 0.0 | 0.00 | 0.00 | 0.00 | 99 | 1011.5 |
| 20260510052808 | 21 | 188 | 0.0 | 0.0 | 0.00 | 0.00 | 0.00 | 99 | 1011.5 |
| 20260510052306 | 21 | 187 | 0.0 | 0.0 | 0.00 | 0.00 | 0.00 | 99 | |
| 20260510051800 | 21 | 187 | 0.0 | 0.0 | 0.00 | 0.00 | 0.00 | 99 | |
| 20260510051257 | 21 | 187 | 0.0 | 0.0 | 0.00 | 0.00 | 0.00 | 99 | |
| 20260510050754 | 21 | 188 | 0.0 | 0.0 | 0.00 | 0.00 | 0.00 | 99 | |
| 20260510050251 | 22 | 202 | 0.0 | 0.0 | 0.00 | 0.00 | 0.00 | 99 | 1011.9 |
| 20260510045747 | 22 | 217 | 0.0 | 0.0 | 0.00 | 0.00 | 0.00 | 99 | 1011.9 |
| 20260510045244 | 21 | 187 | 0.0 | 0.0 | 0.00 | 0.00 | 0.00 | 99 | 1011.9 |
| 20260510044741 | 21 | 187 | 0.0 | 0.0 | 0.00 | 0.00 | 0.00 | 99 | 1011.9 |
| 20260510044239 | 21 | 191 | 0.0 | 0.0 | 0.00 | 0.00 | 0.00 | 99 | 1012.2 |
| 20260510043734 | 22 | 211 | 0.0 | 0.0 | 0.00 | 0.00 | 0.00 | 99 | 1012.2 |
| 20260510043231 | 22 | 211 | 0.0 | 0.0 | 0.00 | 0.00 | 0.00 | 99 | 1012.2 |
| 20260510042728 | 22 | 162 | 0.0 | 0.0 | 0.00 | 0.00 | 0.00 | 99 | 1012.2 |
| 20260510042224 | 22 | 185 | 0.0 | 0.0 | 0.00 | 0.00 | 0.00 | 99 | 1012.2 |
| 20260510041721 | 22 | 146 | 0.0 | 1.6 | 0.00 | 0.00 | 0.00 | 1 | 1011.5 |
| 20260510041218 | 22 | 146 | 0.0 | 1.6 | 0.00 | 0.00 | 0.00 | 1 | 1011.5 |
| 20260510040715 | 22 | 185 | 0.0 | 3.2 | 0.00 | 0.00 | 0.00 | 99 | 1011.9 |
| 20260510040212 | 22 | 188 | 0.0 | 0.0 | 0.00 | 4.06 | 4.06 | 99 | 1012.2 |
| 20260510035707 | 22 | 188 | 0.0 | 0.0 | 0.00 | 4.06 | 4.06 | 99 | 1012.2 |
| 20260510035203 | 22 | 236 | 0.0 | 0.0 | 0.00 | 4.06 | 4.06 | 99 | 1012.5 |
| 20260510034659 | 22 | 236 | 0.0 | 0.0 | 0.00 | 4.06 | 4.06 | 99 | 1012.5 |
| 20260510034157 | 22 | 167 | 0.0 | 0.0 | 0.00 | 4.06 | 4.06 | 99 | 1012.5 |
| 20260510033653 | 21 | 202 | 0.0 | 0.0 | 0.00 | 4.06 | 4.06 | 99 | 1012.9 |
| 20260510033151 | 21 | 217 | 0.0 | 0.0 | 0.00 | 4.06 | 4.06 | 99 | 1012.5 |
| 20260510032647 | 21 | 217 | 0.0 | 0.0 | 0.00 | 4.06 | 4.06 | 99 | 1012.5 |
| 20260510032143 | 21 | 184 | 0.0 | 0.0 | 0.00 | 4.06 | 4.06 | 99 | 1012.9 |
| 20260510031637 | 21 | 184 | 0.0 | 0.0 | 0.00 | 4.06 | 4.06 | 99 | 1012.5 |
| 20260510031134 | 21 | 184 | 0.0 | 0.0 | 0.00 | 4.06 | 4.06 | 99 | 1012.5 |
| 20260510030629 | 22 | 181 | 0.0 | 0.0 | 0.00 | 4.06 | 4.06 | 99 | 1012.9 |
| 20260510030127 | 22 | 181 | 0.0 | 0.0 | 0.00 | 4.06 | 4.06 | 99 | 1012.9 |
| 20260510025624 | 22 | 215 | 0.0 | 0.0 | 0.00 | 4.06 | 4.06 | 99 | 1012.9 |
| 20260510025121 | 22 | 186 | 0.0 | 0.0 | 0.00 | 4.06 | 4.06 | 99 | 1012.9 |
| 20260510024618 | 22 | 185 | 0.0 | 0.0 | 0.00 | 4.06 | 4.06 | 99 | 1012.9 |
| 20260510024114 | 22 | 206 | 0.0 | 0.0 | 0.00 | 4.06 | 4.06 | 1 | 1012.5 |
| 20260510023610 | 22 | 206 | 0.0 | 0.0 | 0.00 | 4.06 | 4.06 | 1 | 1012.5 |
| 20260510023108 | 22 | 210 | 0.0 | 0.0 | 0.00 | 4.06 | 4.06 | 1 | 1012.5 |
| 20260510022607 | 22 | 210 | 0.0 | 0.0 | 0.00 | 4.06 | 4.06 | 1 | 1012.5 |
| 20260510022102 | 22 | 211 | 0.0 | 0.0 | 0.00 | 4.06 | 4.06 | 1 | 1012.2 |
| 20260510021559 | 22 | 211 | 0.0 | 0.0 | 0.00 | 4.06 | 4.06 | 1 | 1012.2 |
| 20260510021056 | 22 | 217 | 0.0 | 0.0 | 0.00 | 4.06 | 4.06 | 1 | 1012.2 |
| 20260510020550 | 22 | 185 | 0.0 | 0.0 | 0.00 | 4.06 | 4.06 | 1 | 1012.2 |
| 20260510020046 | 22 | 177 | 0.0 | 0.0 | 0.00 | 4.06 | 4.06 | 1 | 1011.9 |
| 20260510015542 | 22 | 173 | 0.0 | 1.6 | 0.00 | 4.06 | 4.06 | 1 | 1011.9 |
| 20260510015038 | 22 | 173 | 0.0 | 1.6 | 0.00 | 4.06 | 4.06 | 1 | 1011.9 |
| 20260510014534 | 22 | 184 | 0.0 | 1.6 | 0.00 | 4.06 | 4.06 | 1 | 1011.9 |
| 20260510014032 | 22 | 184 | 0.0 | 1.6 | 0.00 | 4.06 | 4.06 | 1 | 1011.9 |
| 20260510013526 | 22 | 296 | 0.0 | 3.2 | 0.00 | 4.06 | 4.06 | 1 | 1011.5 |
| 20260510013022 | 22 | 296 | 0.0 | 3.2 | 0.00 | 4.06 | 4.06 | 1 | 1011.5 |
| 20260510012516 | 22 | 248 | 0.0 | 0.0 | 0.00 | 4.06 | 4.06 | 1 | 1011.5 |
| 20260510012013 | 22 | 230 | 0.0 | 3.2 | 0.00 | 4.06 | 4.06 | 1 | 1011.5 |
| 20260510011507 | 22 | 230 | 0.0 | 3.2 | 0.00 | 4.06 | 4.06 | 1 | 1011.5 |
| 20260510011003 | 22 | 182 | 0.0 | 0.0 | 0.00 | 4.06 | 4.06 | 1 | 1011.5 |
| 20260510010500 | 22 | 182 | 0.0 | 0.0 | 0.00 | 4.06 | 4.06 | 1 | 1011.5 |
| 20260510005957 | 22 | 233 | 0.0 | 0.0 | 0.00 | 4.06 | 4.06 | 1 | 1011.5 |
| 20260510005453 | 22 | 233 | 0.0 | 0.0 | 0.00 | 4.06 | 4.06 | 1 | 1011.5 |
| 20260510004951 | 22 | 188 | 0.0 | 3.2 | 0.00 | 4.06 | 4.06 | 1 | 1011.5 |
| 20260510004448 | 22 | 188 | 0.0 | 3.2 | 0.00 | 4.06 | 4.06 | 1 | 1011.5 |
| 20260510003946 | 22 | 225 | 1.6 | 1.6 | 0.00 | 4.06 | 4.06 | 1 | 1011.9 |
| 20260510003442 | 22 | 186 | 0.0 | 0.0 | 0.00 | 4.06 | 4.06 | 1 | 1011.9 |
| 20260510002943 | 22 | 186 | 0.0 | 0.0 | 0.00 | 4.06 | 4.06 | 1 | 1011.9 |
| 20260510002439 | 22 | 221 | 0.0 | 0.0 | 0.00 | 4.06 | 4.06 | 1 | 1011.9 |
| 20260510001936 | 22 | 221 | 0.0 | 0.0 | 0.00 | 4.06 | 4.06 | 1 | 1011.9 |
| 20260510001433 | 22 | 183 | 0.0 | 0.0 | 0.00 | 4.06 | 4.06 | 1 | 1011.5 |
| 20260510000931 | 22 | 183 | 0.0 | 0.0 | 0.00 | 4.06 | 4.06 | 1 | 1011.5 |
| 20260510000427 | 22 | 167 | 0.0 | 1.6 | 0.00 | 4.06 | 4.06 | 1 | 1011.5 |
| 20260509235923 | 22 | 167 | 0.0 | 1.6 | 0.00 | 4.06 | 4.06 | 1 | 1011.5 |
| 20260509235420 | 22 | 226 | 0.0 | 1.6 | 0.00 | 4.06 | 4.06 | 1 | 1011.9 |
| 20260509234916 | 22 | 163 | 0.0 | 1.6 | 0.00 | 4.06 | 4.06 | 1 | 1011.9 |
| 20260509234413 | 22 | 240 | 0.0 | 1.6 | 0.00 | 4.06 | 4.06 | 1 | 1011.5 |
| 20260509233911 | 22 | 185 | 0.0 | 0.0 | 0.18 | 4.06 | 4.06 | 99 | 1011.2 |
| 20260509233409 | 22 | 262 | 0.0 | 1.6 | 0.48 | 4.06 | 4.06 | 99 | 1011.5 |
| 20260509232904 | 22 | 181 | 0.0 | 0.0 | 0.00 | 3.99 | 3.99 | 99 | 1011.9 |
| 20260509232403 | 22 | 181 | 0.0 | 0.0 | 0.00 | 3.99 | 3.99 | 99 | 1011.9 |
| 20260509231858 | 22 | 188 | 0.0 | 0.0 | 0.00 | 3.99 | 3.99 | 99 | 1011.9 |
| 20260509231355 | 22 | 188 | 0.0 | 0.0 | 0.13 | 3.99 | 3.99 | 99 | 1012.2 |
| 20260509230853 | 22 | 77 | 0.0 | 0.0 | 0.13 | 3.99 | 3.99 | 99 | 1011.9 |
| 20260509230350 | 22 | 237 | 0.0 | 1.6 | 0.00 | 3.96 | 3.96 | 99 | 1011.9 |
| 20260509225845 | 22 | 237 | 0.0 | 1.6 | 0.00 | 3.96 | 3.96 | 99 | 1011.9 |
| 20260509225342 | 22 | 182 | 0.0 | 0.0 | 0.00 | 3.96 | 3.96 | 99 | 1011.5 |
| 20260509224838 | 22 | 182 | 0.0 | 0.0 | 0.00 | 3.96 | 3.96 | 99 | 1011.5 |
| 20260509224334 | 22 | 258 | 1.6 | 3.2 | 0.00 | 3.96 | 3.96 | 99 | 1011.5 |
| 20260509223831 | 22 | 258 | 1.6 | 3.2 | 0.00 | 3.96 | 3.96 | 99 | 1011.5 |
| 20260509223328 | 22 | 189 | 0.0 | 0.0 | 0.00 | 3.96 | 3.96 | 99 | 1011.9 |
| 20260509222825 | 22 | 216 | 0.0 | 0.0 | 0.00 | 3.96 | 3.96 | 99 | 1011.2 |
| 20260509222320 | 22 | 199 | 0.0 | 0.0 | 0.18 | 3.96 | 3.96 | 99 | 1010.8 |
| 20260509221815 | 22 | 186 | 0.0 | 0.0 | 0.00 | 3.94 | 3.94 | 99 | 1010.8 |
| 20260509221314 | 22 | 186 | 0.0 | 0.0 | 0.00 | 3.94 | 3.94 | 99 | 1010.8 |
| 20260509220808 | 22 | 144 | 0.0 | 0.0 | 0.00 | 3.94 | 3.94 | 99 | 1010.8 |
| 20260509220305 | 22 | 144 | 0.0 | 0.0 | 0.00 | 3.94 | 3.94 | 99 | 1010.8 |
| 20260509215800 | 22 | 212 | 0.0 | 0.0 | 0.13 | 3.94 | 3.94 | 99 | 1011.2 |
| 20260509215257 | 22 | 247 | 0.0 | 0.0 | 0.00 | 3.91 | 3.91 | 99 | 1011.2 |
| 20260509214754 | 22 | 247 | 0.0 | 0.0 | 0.00 | 3.91 | 3.91 | 99 | 1011.2 |
| 20260509214251 | 22 | 233 | 0.0 | 1.6 | 0.00 | 3.91 | 3.91 | 99 | 1011.2 |
| 20260509213748 | 22 | 135 | 0.0 | 0.0 | 0.00 | 3.91 | 3.91 | 99 | 1011.2 |
| 20260509213243 | 22 | 179 | 0.0 | 3.2 | 0.00 | 3.91 | 3.91 | 99 | 1011.2 |
| 20260509212741 | 22 | 179 | 0.0 | 3.2 | 0.00 | 3.91 | 3.91 | 99 | 1011.2 |
| 20260509212239 | 22 | 215 | 3.2 | 4.8 | 0.00 | 3.91 | 3.91 | 99 | 1010.8 |
| 20260509211734 | 22 | 215 | 3.2 | 4.8 | 0.00 | 3.91 | 3.91 | 99 | 1010.8 |
| 20260509211230 | 22 | 169 | 0.0 | 1.6 | 0.00 | 3.91 | 3.91 | 99 | 1010.5 |
| 20260509210727 | 22 | 267 | 0.0 | 1.6 | 0.00 | 3.91 | 3.91 | 99 | 1010.5 |
| 20260509210225 | 22 | 267 | 0.0 | 1.6 | 0.00 | 3.91 | 3.91 | 99 | 1010.5 |
| 20260509205724 | 22 | 228 | 0.0 | 1.6 | 0.00 | 3.91 | 3.91 | 99 | 1010.5 |
| 20260509205224 | 22 | 188 | 0.0 | 1.6 | 0.00 | 3.91 | 3.91 | 99 | 1010.5 |
| 20260509204720 | 22 | 138 | 0.0 | 3.2 | 0.00 | 3.91 | 3.91 | 99 | 1010.8 |
| 20260509204217 | 22 | 138 | 0.0 | 3.2 | 0.00 | 3.91 | 3.91 | 99 | 1010.8 |
| 20260509203713 | 22 | 189 | 0.0 | 3.2 | 0.00 | 3.91 | 3.91 | 99 | 1010.8 |
| 20260509203211 | 22 | 215 | 0.0 | 3.2 | 0.00 | 3.91 | 3.91 | 99 | 1011.2 |
| 20260509202706 | 22 | 215 | 0.0 | 3.2 | 0.00 | 3.91 | 3.91 | 99 | 1011.2 |
| 20260509202201 | 22 | 147 | 0.0 | 0.0 | 0.18 | 3.91 | 3.91 | 99 | 1011.5 |
| 20260509201657 | 22 | 147 | 0.0 | 0.0 | 0.18 | 3.91 | 3.91 | 99 | 1011.5 |
| 20260509201154 | 22 | 188 | 0.0 | 0.0 | 0.18 | 3.91 | 3.91 | 99 | 1011.9 |
| 20260509200650 | 22 | 188 | 0.0 | 0.0 | 0.18 | 3.89 | 3.89 | 99 | 1011.9 |
| 20260509200145 | 22 | 188 | 0.0 | 0.0 | 0.00 | 3.86 | 3.86 | 99 | 1011.9 |
| 20260509195641 | 22 | 188 | 0.0 | 0.0 | 0.00 | 3.86 | 3.86 | 99 | 1011.9 |
| 20260509195137 | 22 | 181 | 0.0 | 0.0 | 0.30 | 3.86 | 3.86 | 99 | 1011.9 |
| 20260509194631 | 21 | 226 | 0.0 | 0.0 | 0.13 | 3.81 | 3.81 | 99 | 1011.9 |
| 20260509194128 | 21 | 226 | 0.0 | 0.0 | 0.13 | 3.81 | 3.81 | 99 | 1011.9 |
| 20260509193624 | 22 | 74 | 0.0 | 0.0 | 0.30 | 3.78 | 3.78 | 99 | 1012.2 |
| 20260509193120 | 22 | 74 | 0.0 | 0.0 | 0.30 | 3.78 | 3.78 | 99 | 1012.2 |
| 20260509192617 | 22 | 160 | 0.0 | 0.0 | 0.13 | 3.76 | 3.76 | 99 | 1012.5 |
| 20260509192112 | 22 | 178 | 0.0 | 0.0 | 0.00 | 3.73 | 3.73 | 99 | 1012.5 |
| 20260509191606 | 21 | 215 | 0.0 | 0.0 | 0.18 | 3.73 | 3.73 | 99 | 1012.5 |
| 20260509191103 | 21 | 184 | 0.0 | 0.0 | 0.00 | 3.71 | 3.71 | 99 | 1012.5 |
| 20260509190600 | 21 | 184 | 0.0 | 0.0 | 0.00 | 3.71 | 3.71 | 99 | 1012.5 |
| 20260509190057 | 21 | 157 | 0.0 | 1.6 | 0.00 | 3.71 | 3.71 | 99 | 1012.2 |
| 20260509185555 | 21 | 132 | 0.0 | 1.6 | 0.13 | 3.71 | 3.71 | 99 | 1012.2 |
| 20260509185050 | 21 | 236 | 0.0 | 1.6 | 0.13 | 3.71 | 3.71 | 99 | 1012.2 |
| 20260509184549 | 21 | 181 | 0.0 | 1.6 | 0.00 | 3.68 | 3.68 | 99 | 1012.2 |
| 20260509184045 | 21 | 252 | 0.0 | 1.6 | 0.30 | 3.68 | 3.68 | 99 | 1011.9 |
| 20260509183540 | 21 | 234 | 0.0 | 0.0 | 0.48 | 3.68 | 3.68 | 99 | 1011.9 |
| 20260509183037 | 21 | 246 | 1.6 | 1.6 | 0.18 | 3.63 | 3.63 | 99 | 1011.9 |
| 20260509182533 | 21 | 234 | 0.0 | 1.6 | 0.13 | 3.61 | 3.61 | 99 | 1012.2 |
| 20260509182030 | 21 | 234 | 0.0 | 1.6 | 0.13 | 3.61 | 3.61 | 99 | 1012.2 |
| 20260509181529 | 21 | 81 | 0.0 | 4.8 | 0.00 | 3.58 | 3.58 | 99 | 1012.2 |
| 20260509181026 | 21 | 81 | 0.0 | 4.8 | 0.00 | 3.58 | 3.58 | 99 | 1012.2 |